Погода в Давыдовом Броде

Украина / Херсонская область     47°14′13″N   33°11′16″E
темп.,
°C
ветер,
м/с
пор.,
м/с
влажн.,
%
обл.,
%
осадки,
мм/ч
давл.,
гПа
погр.,
м
23 апреля, пт
пт2300:00+8ю49890 0.0 1021184
03:00+7ю411915 0.0 1020228
06:00+7ю5129092 0.0 1020256
09:00+12ююз6117094 0.0 1019509
12:00+17ююз8114998 0.0 10191621
15:00+16ююз8115199 0.1 10171601
18:00+13юз71267100 0.1 10171187
21:00+10юз4887100 1.6 1017451
24 апреля, сб
сб2400:00+7ссз61088100 1.1 1018521
03:00+5сз49910 1.1 1019327
06:00+4з38940 0.0 1020208
09:00+9сз57610 0.0 1021774
12:00+12зсз67395 0.0 10211921
15:00+13зсз783978 0.0 10212255
18:00+12зсз68465 0.0 10212002
21:00+7с23645 0.0 102338
25 апреля, вс
вс2500:00+6зсз22650 0.0 102313
03:00+4зсз11685 0.0 102310
06:00+4юз11675 0.0 102310
09:00+10ююз22485 0.0 1022516
12:00+13юз23385 0.0 10211646
15:00+14з3342100 0.0 10191905
18:00+13юз1250100 0.0 1018714
21:00+9ююв4663100 0.0 1019114
26 апреля, пн
пн2600:00+7юз377354 0.0 1018130
03:00+7зюз247379 0.0 1018140
06:00+7сз127398 0.0 101761
09:00+9з4767100 0.1 10171155
12:00+5с688573 0.1 1019586
15:00+11ссз464585 0.1 10181871
18:00+11зсз35415 0.0 10171776
21:00+7з2252100 0.0 101811
27 апреля, вт
вт2700:00+6юз115427 0.0 101810
03:00+5ююз335972 0.0 101822
06:00+5ююз347999 0.0 101773
09:00+10юз2459100 0.0 1018471
12:00+11юз7869100 0.2 10181277
15:00+11юз4666100 0.3 1017859
18:00+12с2262100 0.0 1016300
21:00+9всв3579100 0.0 1017103